Location: Croagnes
(43.9363°N, 5.3265°E)
Time: 22:30:18
(UTC+00:00)

Meteor 1-16 Rocket - Pass Details

Date: 28 September 2020
Orbit: 790 x 908 km, 81.2° (Epoch: 22 October)

Event Time Altitude Azimuth Distance (km) Brightness Sun altitude
Exits shadow 20:06:42 26° 29° (NNE) 1,715 5.7 -29.1°
Drops below altitude 10° 20:09:11 10° 19° (NNE) 2,576 6.8 -29.5°
Sets 20:11:41 0° 15° (NNE) 3,508 7.6 -29.9°
